This is the latest recevied weather packets stored in our database for station/object WY7EM. If no packets are shown the sender has not sent any weather packets the latest 1 day(s).
| Time | Temp. | Humidity | Pressure | Rain* | Wind** | Luminosity | Snow |
|---|---|---|---|---|---|---|---|
| 1778037749 | 18.33° C | 23% | 1008 hPa | 0 mm | 4.47 m/s, 266° | 0 W/m² | - |
| 1778037446 | 18.89° C | 23% | 1007.6 hPa | 0 mm | 2.68 m/s, 15° | 0 W/m² | - |
| 1778037143 | 18.89° C | 23% | 1007.7 hPa | 0 mm | 3.58 m/s, 248° | 0 W/m² | - |
| 1778036841 | 18.89° C | 23% | 1007.4 hPa | 0 mm | 3.13 m/s, 209° | 0 W/m² | - |
| 1778036539 | 18.89° C | 23% | 1007.3 hPa | 0 mm | 1.79 m/s, 48° | 0 W/m² | - |
| 1778036235 | 18.89° C | 23% | 1007.3 hPa | 0 mm | 3.58 m/s, 218° | 0 W/m² | - |
| 1778035932 | 18.89° C | 23% | 1007.3 hPa | 0 mm | 2.68 m/s, 243° | 0 W/m² | - |
| 1778035629 | 18.89° C | 23% | 1007.2 hPa | 0 mm | 2.68 m/s, 305° | 0 W/m² | - |
| 1778035325 | 18.89° C | 23% | 1006.8 hPa | 0 mm | 4.02 m/s, 282° | 0 W/m² | - |
| 1778035021 | 19.44° C | 23% | 1006.9 hPa | 0 mm | 3.13 m/s, 215° | 0 W/m² | - |
| 1778034719 | 19.44° C | 23% | 1006.8 hPa | 0 mm | 3.13 m/s, 265° | 0 W/m² | - |
| 1778034416 | 19.44° C | 23% | 1006.8 hPa | 0 mm | 4.47 m/s, 259° | 1 W/m² | - |
| 1778034113 | 19.44° C | 22% | 1006.4 hPa | 0 mm | 1.79 m/s, 307° | 1 W/m² | - |
| 1778033811 | 19.44° C | 22% | 1006.4 hPa | 0 mm | 4.92 m/s, 275° | 2 W/m² | - |
| 1778033508 | 19.44° C | 22% | 1006.3 hPa | 0 mm | 0.89 m/s, 208° | 3 W/m² | - |
| 1778033205 | 19.44° C | 22% | 1006.5 hPa | 0 mm | 2.68 m/s, 243° | 6 W/m² | - |
| 1778032903 | 19.44° C | 22% | 1006.4 hPa | 0 mm | 2.68 m/s, 224° | 8 W/m² | - |
| 1778032600 | 20° C | 21% | 1006.4 hPa | 0 mm | 4.02 m/s, 153° | 12 W/m² | - |
| 1778032297 | 20° C | 20% | 1006.4 hPa | 0 mm | 1.79 m/s, 278° | 16 W/m² | - |
| 1778031995 | 20° C | 19% | 1006.2 hPa | 0 mm | 2.68 m/s, 265° | 19 W/m² | - |
| 1778031690 | 20° C | 19% | 1006.2 hPa | 0 mm | 3.13 m/s, 199° | 23 W/m² | - |
| 1778031388 | 20.56° C | 19% | 1006 hPa | 0 mm | 1.34 m/s, 260° | 28 W/m² | - |
| 1778031085 | 20.56° C | 18% | 1006 hPa | 0 mm | 1.79 m/s, 262° | 32 W/m² | - |
| 1778030781 | 20.56° C | 18% | 1006 hPa | 0 mm | 3.13 m/s, 266° | 34 W/m² | - |
| 1778030478 | 21.11° C | 18% | 1005.8 hPa | 0 mm | 0.89 m/s, 294° | 38 W/m² | - |
* Rain latest hour (hover to see other rain measurements)
** Current wind speed in m/s (hover to see current wind gust speed)